Regional Weather Roundup
Issued by NWS Cleveland, OH

Home | Current Version | Previous Version | Graphics & Text | Print | Product List | Glossary On
Versions: 1 2 3 4 5 6 7 8 9 10 11 12 13 14 15 16 17 18 19 20 21 22 23 24 25 26 27 28 29 30 31 32 33 34 35 36 37 38 39 40 41 42 43 44 45 46 47 48 49 50
000
ASUS41 KCLE 281000
RWRCLE
OHIO REGIONAL WEATHER ROUNDUP
NATIONAL WEATHER SERVICE WILMINGTON, OH
600 AM EDT THU AUG 28 2014

NOTE: "FAIR" INDICATES FEW OR NO CLOUDS BELOW 12,000 FEET WITH NO
SIGNIFICANT WEATHER AND/OR OBSTRUCTIONS TO VISIBILITY.

OHZ001>008-015>018-024>027-034-035-043-044-281100-
   NORTHWEST OHIO

CITY           SKY/WX    TMP DP  RH WIND       PRES   REMARKS
DEFIANCE       PTCLDY    61  58  90 NE6       30.13R
FINDLAY        PTCLDY    65  61  87 NE7       30.11S
TOLEDO EXPRESS CLOUDY    62  57  83 N3        30.13R
TOLEDO METCALF CLOUDY    65  57  75 NE5       30.14R
LIMA           CLEAR     62  60  93 CALM      30.12R FOG
$$

OHZ009>014-019>023-028>033-038-089-281100-
   NORTHEAST OHIO

CITY           SKY/WX    TMP DP  RH WIND       PRES   REMARKS
CLE-HOPKINS    MOCLDY    64  56  75 NE3       30.13R
CLE-LAKEFRONT  MOCLDY    63  55  75 NE5       30.11R
CUY CO. ARPT   NOT AVBL
LORAIN-ELYRIA  CLOUDY    63  58  83 CALM      30.13R
ASHTABULA      CLEAR     53  50  89 N5        30.11R
AKRON-CANTON   CLEAR     59  54  83 CALM      30.11R
WOOSTER        NOT AVBL
MANSFIELD      CLEAR     59  58  96 CALM      30.13R FOG
YOUNGSTOWN     PTCLDY    54  51  90 CALM      30.10R
$$

OHZ042-051>053-060>062-070>072-077>081-281100-
  SOUTHWEST OHIO

CITY           SKY/WX    TMP DP  RH WIND       PRES   REMARKS
CINC-COVINGTON PTCLDY    73  67  81 NE6       30.07R
CINC-LUNKEN    CLEAR     68  67  96 N5        30.07R
HAMILTON       CLEAR     67  65  93 CALM      30.09R
DAYTON         NOT AVBL
WRIGHT-PAT AFB CLEAR     65  63  92 NE2       30.10R
DAYTON GENERAL CLEAR     65  62  90 NE5       30.09R
WILMINGTON     CLEAR     63  60  90 NE6       30.09R
$$

OHZ036-037-039>041-045>050-054>059-063>069-073>076-082>088-281100-
  CENTRAL AND SOUTHEAST OHIO

CITY           SKY/WX    TMP DP  RH WIND       PRES   REMARKS
COLUMBUS       CLEAR     65  60  84 N6        30.09R
OSU AIRPORT    CLEAR     62  60  93 N6        30.10R
BOLTON FIELD   NOT AVBL
RICKENBACK AFB NOT AVBL
NEWARK         CLEAR     62  59  90 CALM      30.10R
MARION         FOG       59  57  93 CALM      30.12R VSB 1/4
LANCASTER      CLEAR     62  59  90 N3        30.09R
ZANESVILLE     CLEAR     60  58  92 CALM      30.09S
NEW PHILLY     CLEAR     59  57  93 CALM      30.11R
$$



USA.gov is the U.S. government's official web portal to all federal, state and local government web resources and services.